QPF
0.00 0.00 0.00 0.00 0.00 0.00 0.00 0.00 0.00 0.00 0.00 0.00 0.00 0.00 0.00 0.00 0.00 0.00 0.00 0.00 0.00 0.00
0.00 0.00 0.00 0.00 0.00 0.00 0.00 0.00 0.00 0.00 0.00 0.00 0.00 0.00 0.00 0.00 0.00 0.00 0.00 0.00 0.00 0.00
0.00 0.00 0.00 0.00 0.00 0.00 0.00 0.00 0.00 0.00 0.00 0.00 0.00 0.00 0.00 0.00 0.00 0.00 0.00 0.00 0.00 0.00
0.00 0.00 0.00 0.00 0.00 0.00 0.00 0.00 0.00 0.00 0.00 0.00 0.00 0.00 0.00 0.00 0.00 0.00 0.00 0.00 0.00 0.00
0.00 0.00 0.00 0.00 0.01 0.00 0.00 0.00 0.00 0.00 0.00 0.00 0.00 0.00 0.00 0.00 0.00 0.00 0.00 0.00 0.00 0.00
0.00 0.00 0.00 0.00 0.01 0.00 0.00 0.00 0.00 0.00 0.00 0.00 0.00 0.00 0.00 0.00 0.00 0.00 0.00 0.00 0.00 0.00
0.02 0.03 0.03 0.02 0.01 0.00 0.00 0.00 0.00 0.00 0.00 0.00 0.00 0.00 0.00 0.00 0.00 0.00 0.00 0.00 0.00 0.00
0.05 0.13 0.11 0.09 0.07 0.04 0.02 0.00 0.00 0.00 0.00 0.00 0.00 0.00 0.00 0.00 0.00 0.00 0.00 0.00 0.00 0.00
0.02 0.08 0.05 0.08 0.11 0.10 0.05 0.02 0.00 0.00 0.00 0.00 0.00 0.00 0.00 0.00 0.00 0.00 0.00 0.00 0.00 0.00
0.01 0.01 0.01 0.06 0.13 0.12 0.05 0.02 0.00 0.00 0.00 0.00 0.00 0.00 0.00 0.00 0.00 0.00 0.00 0.00 0.01 0.02
0.00 0.00 0.01 0.08 0.09 0.07 0.03 0.00 0.00 0.00 0.00 0.00 0.00 0.00 0.01 0.05 0.02 0.01 0.01 0.02 0.01 0.00
0.00 0.00 0.00 0.06 0.03 0.03 0.04 0.01 0.00 0.00 0.00 0.00 0.01 0.06 0.11 0.11 0.07 0.04 0.02 0.01 0.00 0.00
0.00 0.00 0.01 0.02 0.03 0.04 0.04 0.02 0.00 0.00 0.01 0.02 0.03 0.06 0.07 0.05 0.03 0.02 0.01 0.00 0.00 0.00
0.00 0.00 0.00 0.02 0.07 0.05 0.02 0.01 0.00 0.00 0.00 0.00 0.00 0.02 0.04 0.06 0.04 0.03 0.01 0.00 0.00 0.00
MSLP
1013.59 1014.06 1014.53 1014.92 1015.31 1015.92 1016.17 1016.70 1017.06 1017.47 1017.78 1018.14 1018.43 1018.62 1018.95 1019.03 1018.97 1019.09 1019.19 1019.23 1019.44 1019.21
1012.97 1013.50 1013.91 1014.43 1015.42 1015.82 1016.33 1016.32 1016.59 1017.11 1017.51 1017.94 1018.27 1018.45 1018.54 1018.58 1018.89 1019.04 1019.08 1019.09 1019.23 1019.16
1012.36 1013.04 1014.04 1015.38 1015.24 1015.52 1015.88 1016.54 1016.78 1016.90 1017.53 1017.82 1017.89 1017.90 1018.14 1018.13 1018.35 1018.61 1018.73 1018.73 1018.82 1018.86
1011.70 1012.85 1014.00 1014.33 1015.05 1014.93 1016.17 1016.65 1017.08 1017.25 1017.26 1017.46 1017.48 1017.81 1018.08 1018.14 1018.22 1018.37 1018.33 1018.49 1018.46 1018.42
1011.52 1012.27 1012.34 1014.16 1015.43 1015.32 1015.77 1016.35 1016.91 1017.16 1017.09 1017.15 1017.25 1017.49 1017.85 1017.91 1018.01 1018.00 1018.01 1017.53 1017.69 1017.85
1010.89 1011.35 1012.19 1012.79 1013.63 1016.05 1016.12 1015.93 1016.58 1016.76 1016.73 1016.80 1016.99 1017.01 1017.19 1017.30 1017.41 1017.53 1017.44 1017.12 1017.11 1017.14
1010.22 1010.62 1011.23 1012.52 1012.88 1013.76 1013.36 1015.12 1015.06 1015.05 1015.65 1016.12 1016.34 1016.37 1016.46 1016.68 1016.67 1016.83 1016.71 1016.53 1016.63 1016.72
1009.27 1009.92 1010.76 1011.30 1011.43 1012.07 1012.71 1013.44 1014.27 1014.26 1015.06 1015.48 1015.66 1015.56 1015.83 1016.04 1015.95 1016.01 1015.98 1015.88 1016.11 1016.31
1008.56 1009.06 1009.76 1010.44 1010.81 1011.08 1011.88 1012.04 1012.87 1013.50 1014.10 1014.46 1014.55 1014.79 1015.31 1015.43 1015.38 1015.29 1015.28 1015.16 1015.36 1015.56
1008.05 1008.44 1008.94 1009.62 1010.47 1011.09 1011.46 1012.53 1012.43 1012.58 1013.11 1013.41 1013.86 1014.29 1014.32 1014.89 1014.89 1014.79 1014.78 1014.78 1015.05 1015.08
1007.72 1008.33 1009.01 1009.49 1009.71 1010.38 1011.10 1011.63 1011.70 1011.80 1012.20 1012.75 1012.93 1013.34 1014.02 1014.65 1014.76 1014.75 1014.65 1014.37 1014.49 1014.72
1007.06 1007.52 1008.28 1008.90 1009.24 1009.96 1010.69 1010.99 1011.15 1011.36 1011.74 1012.17 1012.44 1013.25 1014.06 1014.54 1015.09 1015.21 1014.85 1014.33 1014.55 1014.53
1006.63 1007.36 1007.93 1008.58 1009.19 1009.87 1010.50 1010.83 1010.78 1011.04 1011.43 1011.39 1011.50 1012.12 1012.57 1012.66 1014.39 1015.13 1014.86 1014.93 1014.70 1014.63
1005.31 1006.85 1007.55 1008.42 1009.03 1009.47 1009.85 1010.12 1010.22 1010.55 1010.71 1010.95 1011.21 1011.88 1011.69 1012.32 1013.37 1014.05 1014.42 1014.29 1014.00 1014.00
Thickness
5786 5781 5776 5772 5767 5759 5755 5748 5742 5737 5734 5730 5725 5722 5717 5717 5716 5712 5708 5706 5702 5702
5787 5782 5776 5770 5759 5753 5748 5747 5743 5735 5731 5725 5720 5716 5714 5714 5710 5706 5703 5700 5696 5694
5788 5781 5768 5753 5755 5751 5746 5738 5734 5733 5724 5720 5717 5715 5712 5711 5708 5704 5700 5697 5692 5688
5788 5777 5764 5761 5756 5756 5738 5728 5722 5722 5720 5715 5714 5708 5704 5703 5702 5696 5694 5692 5687 5684
5782 5773 5772 5747 5741 5740 5734 5726 5716 5714 5714 5710 5710 5705 5699 5696 5695 5691 5688 5691 5687 5682
5780 5774 5767 5760 5749 5724 5718 5716 5708 5708 5709 5705 5702 5700 5697 5694 5690 5686 5684 5686 5684 5680
5780 5775 5768 5755 5748 5735 5735 5716 5715 5718 5710 5703 5698 5696 5696 5691 5688 5684 5683 5682 5678 5673
5784 5775 5765 5757 5753 5744 5736 5721 5716 5718 5707 5699 5695 5694 5691 5688 5685 5681 5678 5677 5670 5665
5783 5776 5765 5756 5750 5744 5735 5730 5722 5715 5706 5697 5694 5692 5686 5682 5678 5676 5673 5672 5668 5663
5779 5772 5765 5757 5747 5737 5731 5721 5719 5713 5706 5698 5691 5686 5684 5675 5673 5670 5667 5664 5659 5657
5772 5765 5756 5748 5743 5735 5726 5719 5715 5711 5704 5697 5693 5687 5676 5666 5663 5660 5659 5659 5657 5652
5770 5763 5753 5744 5738 5730 5719 5713 5709 5705 5700 5693 5687 5675 5665 5657 5652 5645 5646 5650 5647 5643
5763 5752 5743 5736 5727 5720 5711 5704 5704 5698 5694 5691 5686 5677 5670 5664 5650 5639 5637 5634 5633 5628
5766 5746 5736 5727 5718 5712 5706 5702 5699 5693 5689 5684 5678 5669 5667 5660 5648 5639 5631 5627 5627 5624